Date,TemperatureHighF,TemperatureAvgF,TemperatureLowF,DewpointHighF,DewpointAvgF,DewpointLowF,HumidityHigh,HumidityAvg,HumidityLow,PressureMaxIn,PressureMinIn,WindSpeedMaxMPH,WindSpeedAvgMPH,GustSpeedMaxMPH,PrecipitationSumIn
2013-1-1,22,10,3,8,2,-2,82,71,51,30.34,30.24,11,4,11,0.00
2013-1-2,29,17,4,20,10,-1,85,75,59,30.26,30.11,14,3,14,0.00
2013-1-3,27,19,8,23,14,4,88,80,60,30.39,30.16,15,3,15,0.00
2013-1-4,36,21,7,24,14,3,86,77,62,30.34,30.22,15,4,15,0.00
2013-1-5,36,29,19,31,24,16,88,84,70,30.28,30.00,25,8,25,0.00
2013-1-6,26,18,13,21,13,-3,85,80,67,30.37,30.02,18,4,18,0.00
2013-1-7,39,28,14,28,21,10,85,75,59,30.36,30.12,28,8,28,0.00
2013-1-8,43,35,26,33,28,22,84,77,67,30.16,30.02,23,5,23,0.00
2013-1-9,43,33,26,32,27,23,87,79,64,30.54,30.06,23,3,23,0.00
2013-1-10,40,33,26,34,28,22,90,82,62,30.54,29.87,22,7,22,0.00
2013-1-11,51,43,36,46,40,34,91,90,80,29.87,29.67,17,5,17,0.00
2013-1-12,51,32,19,45,25,15,87,77,64,30.12,29.69,18,7,18,0.00
2013-1-13,20,15,10,15,8,5,82,73,61,30.34,29.99,20,7,20,0.00
2013-1-14,31,16,4,14,7,0,83,68,47,30.52,30.34,8,2,8,0.00
2013-1-15,33,20,9,19,11,4,83,70,49,30.48,30.18,14,4,14,0.00
2013-1-16,37,28,15,31,20,8,87,74,59,30.18,29.92,20,7,20,0.00
2013-1-17,34,26,17,30,15,9,83,66,41,30.47,30.16,20,5,20,0.00
2013-1-18,46,35,20,34,27,15,81,72,58,30.46,29.96,34,11,34,0.00
2013-1-19,52,38,17,36,30,6,81,72,50,30.18,29.83,46,10,46,0.00
2013-1-20,18,13,7,6,3,0,78,65,53,30.43,30.18,31,9,31,0.00
2013-1-21,12,6,0,5,-5,-11,76,60,44,30.38,30.27,24,10,24,0.00
2013-1-22,15,6,-6,0,-5,-12,78,61,47,30.47,30.36,15,5,15,0.00
2013-1-23,28,16,8,13,6,-2,71,62,52,30.49,30.18,24,9,24,0.00
2013-1-24,20,11,2,8,-1,-7,66,58,47,30.70,30.33,20,9,20,0.00
2013-1-25,36,23,13,19,12,5,81,62,44,30.34,30.05,22,8,22,0.00
2013-1-26,30,19,6,15,8,1,79,63,44,30.45,30.30,14,5,14,0.00
2013-1-27,35,30,25,33,24,15,90,79,63,30.36,29.88,17,4,17,0.00
2013-1-28,45,41,35,41,38,33,91,90,86,30.02,29.75,16,6,16,0.00
2013-1-29,59,48,34,55,45,32,91,90,85,29.76,29.53,20,11,20,0.00
2013-1-30,34,26,13,32,23,8,91,87,77,29.82,29.39,20,4,20,0.00
2013-1-31,14,7,-2,10,0,-8,85,75,65,30.33,29.82,23,10,23,0.00
2013-2-1,15,4,-6,10,-4,-13,83,70,53,30.45,30.16,21,7,21,0.00
2013-2-2,23,17,10,19,11,5,86,77,54,30.19,30.05,32,7,32,0.00
2013-2-3,24,18,14,17,12,9,88,78,61,30.16,30.01,20,6,20,0.00
2013-2-4,25,20,11,19,14,6,86,78,67,30.05,29.88,21,8,21,0.00
2013-2-5,34,25,11,28,20,7,87,80,72,30.18,29.88,18,6,18,0.00
2013-2-6,40,30,13,33,24,9,86,79,62,30.26,30.08,14,5,14,0.00
2013-2-7,35,33,30,32,30,26,91,89,83,30.15,29.96,22,7,22,0.00
2013-2-8,33,28,24,26,22,19,86,80,69,30.42,30.15,22,8,22,0.00
2013-2-9,35,28,24,29,24,20,89,84,77,30.42,30.07,20,6,20,0.00
2013-2-10,46,37,29,43,34,26,91,88,75,30.08,29.46,27,10,27,0.00
2013-2-11,35,30,25,30,23,19,81,76,70,30.15,29.57,31,12,31,0.00
2013-2-12,38,28,23,26,22,18,85,76,58,30.19,29.95,19,5,19,0.00
2013-2-13,45,33,22,33,27,19,88,80,61,29.95,29.74,12,3,12,0.00
2013-2-14,40,35,27,31,30,22,88,81,62,30.10,29.71,21,7,21,0.00
2013-2-15,32,23,15,23,13,6,82,64,41,30.31,30.10,23,9,23,0.00
2013-2-16,27,17,8,12,8,3,82,68,50,30.31,30.20,18,5,18,0.00
2013-2-17,34,22,10,23,13,4,80,69,55,30.24,29.91,21,7,21,0.63
2013-2-18,57,34,17,40,28,11,90,77,54,29.91,29.59,31,9,31,0.12
2013-2-19,17,11,4,12,4,-2,82,73,66,30.35,29.82,34,15,34,0.08
2013-2-20,26,14,3,14,6,-3,78,68,53,30.47,30.34,14,5,14,0.00
2013-2-21,26,20,12,23,15,7,89,82,75,30.43,29.97,25,10,25,0.00
2013-2-22,33,26,22,30,23,19,90,89,88,30.00,29.85,19,7,19,0.02
2013-2-23,33,23,13,21,18,9,88,80,61,30.06,29.98,14,3,14,0.00
2013-2-24,36,21,9,25,15,5,87,78,63,30.19,30.06,9,2,9,0.00
2013-2-25,40,30,19,30,24,16,87,78,65,30.20,29.99,66,5,66,0.00
2013-2-26,35,32,29,28,27,25,89,80,71,29.99,29.64,32,17,32,0.00
2013-2-27,35,31,28,30,27,25,89,86,81,29.90,29.71,22,11,22,0.00
2013-2-28,36,32,28,28,27,25,88,81,71,30.18,29.89,19,9,19,0.00
2013-3-1,29,26,18,25,18,14,87,75,65,30.32,30.17,25,10,25,0.00
2013-3-2,32,21,13,16,12,8,82,69,48,30.33,30.24,14,6,14,0.00
2013-3-3,37,20,9,21,11,4,84,70,46,30.24,30.12,10,2,10,0.00
2013-3-4,31,26,23,24,19,13,83,74,65,30.14,29.99,25,13,25,0.00
2013-3-5,35,29,26,30,25,22,89,85,79,30.21,29.93,12,4,12,0.12
2013-3-6,34,26,20,24,20,16,85,79,65,30.41,30.20,24,8,24,0.02
2013-3-7,39,25,17,27,19,13,85,78,62,30.48,30.39,9,3,9,0.00
2013-3-8,37,29,19,29,23,15,87,80,71,30.48,30.28,18,9,18,0.00
2013-3-9,38,35,33,35,32,28,90,87,82,30.29,29.83,20,10,20,0.37
2013-3-10,42,38,34,39,36,32,92,91,89,29.84,29.65,17,4,17,0.61
2013-3-11,34,32,28,32,29,23,92,89,80,29.94,29.67,22,7,22,0.04
2013-3-12,37,28,23,30,23,18,87,79,67,30.18,29.93,33,7,33,0.00
2013-3-13,36,27,20,19,17,14,81,66,44,30.42,30.18,25,8,25,0.00
2013-3-14,39,27,20,31,22,15,85,81,71,30.41,30.15,17,3,17,0.00
2013-3-15,42,36,28,35,32,24,89,83,76,30.04,29.81,14,5,14,0.00
2013-3-16,37,32,28,31,27,22,90,81,69,30.23,29.80,17,8,17,0.00
2013-3-17,35,29,23,26,21,14,83,73,60,30.27,30.00,19,11,19,0.00
2013-3-18,35,27,17,31,23,10,89,82,72,30.00,29.72,30,9,30,0.16
2013-3-19,30,20,12,18,12,6,79,69,54,30.22,29.94,30,10,30,0.00
2013-3-20,24,17,9,14,7,1,74,64,52,30.26,30.15,26,12,26,0.00
2013-3-21,34,22,7,17,11,2,80,63,44,30.18,30.08,29,3,29,0.00
2013-3-22,42,29,15,24,17,9,80,63,42,30.15,30.08,29,2,29,0.00
2013-3-23,44,34,24,25,22,19,80,63,46,30.19,30.08,12,4,12,0.00
2013-3-24,32,30,27,27,26,24,89,85,75,30.12,29.83,24,11,24,0.02
2013-3-25,39,31,27,27,24,20,86,73,61,30.21,29.91,29,11,29,0.00
2013-3-26,42,34,25,29,24,20,81,69,53,30.36,30.21,17,5,17,0.00
2013-3-27,50,38,28,30,24,22,82,59,37,30.42,30.35,18,2,18,0.00
2013-3-28,54,41,27,33,27,0,80,60,40,30.43,30.33,9,1,9,0.00
2013-3-29,59,44,32,37,31,25,76,59,39,30.39,30.27,9,2,9,0.00
2013-3-30,56,44,34,43,36,27,89,74,60,30.28,29.94,22,6,22,0.00
2013-3-31,52,42,32,43,34,23,90,74,43,30.06,29.90,23,7,23,0.00
2013-4-1,40,32,25,24,19,16,78,60,41,30.31,30.05,18,8,18,0.00
2013-4-2,45,34,20,26,19,15,83,57,33,30.40,30.31,22,5,22,0.00
2013-4-3,47,36,21,22,19,14,78,52,32,30.51,30.34,16,4,16,0.00
2013-4-4,63,45,27,38,28,17,74,53,34,30.35,30.07,18,4,18,0.00
2013-4-5,54,43,32,32,27,23,78,55,34,30.30,30.10,22,8,22,0.00
2013-4-6,68,50,36,49,36,20,85,59,37,30.11,29.67,40,13,40,0.04
2013-4-7,51,42,36,42,36,32,87,80,60,30.02,29.78,20,6,20,0.00
2013-4-8,75,61,44,57,51,39,90,72,47,29.97,29.66,18,5,18,0.18
2013-4-9,56,48,40,51,45,37,90,87,83,30.00,29.87,28,12,28,0.27
2013-4-10,40,38,34,37,35,31,90,89,88,30.11,29.71,34,13,34,0.94
2013-4-11,48,40,35,45,36,32,91,89,85,29.84,29.64,27,11,27,0.14
2013-4-12,41,37,34,36,32,29,89,83,71,29.97,29.66,24,8,24,0.00
2013-4-13,51,39,32,33,30,25,86,71,49,30.05,29.94,20,7,20,0.02
2013-4-14,75,53,36,53,42,32,88,68,40,30.04,29.60,25,11,25,0.12
2013-4-15,64,49,39,50,42,33,90,77,39,30.10,29.71,20,5,20,0.26
2013-4-16,56,44,33,38,34,28,88,68,45,30.30,30.06,17,6,17,0.00
2013-4-17,48,42,39,43,36,34,90,79,64,30.34,29.87,30,12,30,1.94
2013-4-18,60,48,35,57,45,31,92,88,81,29.93,10.93,22,7,22,1.94
2013-4-19,38,35,32,31,29,27,87,79,68,30.07,29.61,30,9,30,1.94
2013-4-20,52,36,27,34,27,-10,88,72,14,30.42,30.07,15,3,15,1.94
2013-4-21,59,45,34,42,34,26,77,66,52,30.49,30.28,28,10,28,0.00
2013-4-22,70,56,45,46,40,37,75,56,35,30.31,30.05,24,6,24,0.00
2013-4-23,54,41,37,46,36,30,87,82,75,30.11,30.02,21,8,21,0.20
2013-4-24,55,42,32,33,30,26,79,64,36,30.17,29.10,22,6,22,0.00
2013-4-25,48,40,33,37,30,-19,87,71,46,30.34,30.13,26,8,26,0.02
2013-4-26,70,48,40,48,36,27,79,63,43,30.34,30.24,34,8,34,0.00
2013-4-27,66,57,43,51,46,39,87,67,50,30.33,30.06,19,2,19,0.00
2013-4-28,77,59,44,55,47,41,88,65,37,30.06,29.88,11,1,11,0.00
2013-4-29,79,58,49,60,50,46,87,77,49,29.95,29.74,20,4,20,0.00
2013-4-30,87,74,62,60,55,50,82,56,29,29.97,29.75,33,10,33,0.00
2013-5-1,85,72,52,59,54,42,74,55,30,30.23,29.96,25,6,25,0.00
2013-5-2,52,44,37,43,38,34,89,78,67,30.36,30.20,30,16,30,0.12
2013-5-3,49,40,35,46,37,32,90,89,88,30.29,29.98,21,12,21,1.32
2013-5-4,69,58,49,57,52,46,90,80,62,30.12,29.98,17,7,17,0.00
2013-5-5,74,62,-13,56,51,-26,90,70,45,30.13,29.11,16,6,16,0.00
2013-5-6,76,64,50,53,47,44,82,57,37,30.15,30.06,15,3,15,0.00
2013-5-7,82,67,52,53,48,44,80,54,29,30.14,30.06,10,1,10,0.00
2013-5-8,84,64,52,58,49,44,75,58,32,30.12,30.03,13,1,13,0.00
2013-5-9,73,62,58,62,57,53,98,82,66,30.05,29.87,12,2,12,0.51
2013-5-10,60,50,45,57,46,42,90,85,77,30.08,29.88,19,10,19,0.06
2013-5-11,58,50,40,50,40,26,90,70,37,30.19,29.97,31,8,31,0.02
2013-5-12,58,47,34,33,29,26,73,51,35,30.26,30.17,21,6,21,0.02
2013-5-13,70,44,35,43,32,27,76,64,29,30.26,29.99,14,0,14,0.00
2013-5-14,85,58,54,62,45,41,71,62,47,29.99,29.69,17,6,17,0.00
2013-5-15,84,73,62,57,52,46,67,49,30,29.96,29.73,62,4,62,0.00
2013-5-16,85,72,55,55,49,22,72,47,14,30.02,29.93,17,2,17,0.00
2013-5-17,83,70,60,62,56,49,79,61,46,30.07,29.97,18,5,18,0.00
2013-5-18,83,71,57,67,59,52,84,69,50,30.09,29.97,15,4,15,0.00
2013-5-19,83,68,62,70,61,58,88,81,64,30.02,29.89,19,6,19,0.39
2013-5-20,80,68,62,65,60,58,88,78,60,29.82,29.74,12,7,15,0.04
2013-5-21,78,71,62,60,57,28,78,63,52,29.78,29.74,20,3,20,0.39
2013-5-22,72,62,56,58,54,52,87,78,54,29.86,29.71,13,2,13,0.39
2013-5-23,66,58,51,54,50,40,89,76,50,30.35,29.85,22,8,22,0.04
2013-5-24,70,55,40,43,39,34,86,57,32,30.52,30.34,13,3,13,0.04
2013-5-25,58,50,47,48,44,41,85,80,57,30.46,30.32,23,5,23,0.41
2013-5-26,56,52,46,52,47,41,89,83,71,30.35,30.12,21,8,21,0.65
2013-5-27,66,60,56,62,56,52,90,88,84,30.14,29.89,17,8,17,0.08
2013-5-28,80,68,59,72,63,55,90,86,74,29.90,29.72,22,4,22,0.16
2013-5-29,85,71,61,72,63,56,86,77,63,29.99,29.82,18,3,18,0.02
2013-5-30,83,74,62,70,66,58,88,75,60,29.93,29.75,30,7,30,0.65
2013-5-31,77,69,62,66,62,23,88,79,60,29.87,29.71,31,6,31,0.22
2013-6-1,79,71,61,66,60,56,88,71,48,29.86,29.74,19,5,19,0.00
2013-6-2,63,58,50,57,49,-4,87,73,58,30.12,29.86,22,6,22,0.00
2013-6-3,73,62,47,56,48,43,88,63,42,30.20,30.09,9,1,9,0.00
2013-6-4,73,62,51,54,50,46,82,64,44,30.25,30.11,20,4,20,0.00
2013-6-5,65,60,56,58,53,48,88,78,66,30.15,30.01,14,4,14,0.08
2013-6-6,65,59,55,57,54,52,88,84,73,30.03,29.96,10,4,10,0.02
2013-6-7,73,63,55,56,53,50,87,72,52,30.07,29.99,11,4,11,0.00
2013-6-8,78,67,55,56,52,48,80,60,44,30.05,29.99,14,3,14,0.00
2013-6-9,78,66,60,64,57,50,88,76,58,30.02,29.85,20,5,20,0.63
2013-6-10,79,67,58,67,60,6,90,80,60,29.97,29.84,16,1,16,0.02
2013-6-11,87,74,60,70,64,56,88,72,53,30.00,29.88,10,1,10,0.00
2013-6-12,92,78,67,75,68,63,87,73,53,29.97,29.67,30,5,30,0.20
2013-6-13,82,70,63,63,60,56,89,73,46,30.12,29.80,20,6,20,0.45
2013-6-14,77,63,56,60,55,51,86,77,53,30.22,29.10,8,1,8,0.00
2013-6-15,85,70,65,70,61,56,84,75,54,30.11,15.95,13,2,13,430.78
2013-6-16,89,77,64,70,62,53,87,62,36,30.03,29.97,13,1,13,0.00
2013-6-17,92,85,63,64,59,53,74,42,32,30.04,29.94,11,2,11,0.00
2013-6-18,79,69,58,60,56,52,80,65,49,30.15,29.98,19,7,19,430.78
2013-6-19,85,70,54,61,54,45,75,59,40,30.22,30.12,10,3,10,0.00
2013-6-20,91,78,62,64,60,55,79,57,37,30.20,30.08,17,3,17,0.00
2013-6-21,78,73,65,69,65,61,87,76,65,30.24,30.00,23,4,23,0.20
2013-6-22,89,77,64,78,70,60,88,79,59,30.22,29.98,23,5,23,0.37
2013-6-23,86,76,67,73,67,63,87,73,55,30.09,29.92,20,3,20,0.16
2013-6-24,74,68,64,67,63,61,89,86,77,30.17,29.96,18,4,18,0.59
2013-6-25,86,76,67,76,70,64,90,83,70,30.00,16.94,10,1,10,0.83
2013-6-26,88,77,67,74,69,63,89,77,55,29.88,29.76,15,2,15,0.83
2013-6-27,89,80,69,75,67,15,88,68,44,29.94,29.85,30,8,30,0.83
2013-6-28,83,74,63,63,61,58,83,64,48,29.90,29.76,24,6,24,0.83
2013-6-29,74,66,63,65,61,22,87,83,69,29.92,29.74,24,6,24,0.83
2013-6-30,79,69,62,62,58,53,85,68,48,30.12,29.92,21,8,21,0.83
2013-7-1,62,62,62,53,53,53,72,72,72,30.12,30.12,1,1,1,0.83
2013-7-5,88,78,65,66,63,59,83,62,45,30.14,30.07,8,3,8,0.00
2013-7-6,88,77,64,69,64,59,84,66,45,30.11,30.03,7,3,9,0.00
2013-7-7,90,77,67,71,67,63,86,73,54,30.07,30.01,8,3,8,0.00
2013-7-8,89,80,70,76,72,67,88,76,64,30.07,30.02,13,5,13,0.71
2013-7-9,87,79,71,78,73,68,88,82,71,30.08,29.96,10,2,10,0.37
2013-7-10,83,76,64,73,66,58,88,72,51,30.10,29.97,114,10,114,0.00
2013-7-11,81,68,60,65,59,56,87,75,51,30.21,30.12,6,1,6,0.00
2013-7-12,84,72,57,64,59,53,87,66,44,30.25,30.15,10,0,10,0.00
2013-7-13,86,71,58,67,61,53,85,70,52,30.23,30.15,11,1,11,0.00
2013-7-14,86,77,64,72,66,59,85,71,56,30.29,30.21,11,2,11,0.00
2013-7-15,92,81,70,76,72,66,87,74,56,30.34,30.27,12,1,12,0.00
2013-7-16,94,81,72,78,73,68,88,78,56,30.38,30.31,7,0,7,0.00
2013-7-17,95,84,72,79,73,68,87,73,53,30.40,30.34,6,0,6,0.00
2013-7-18,94,88,73,78,74,69,87,66,53,30.28,30.03,22,3,22,0.00
2013-7-19,95,83,72,78,72,-20,85,70,53,30.04,29.87,16,3,16,0.00
2013-7-20,91,77,61,69,64,57,87,66,45,30.04,29.94,22,1,22,0.00
2013-7-21,85,74,64,72,66,59,88,77,60,30.03,29.93,14,1,14,0.02
2013-7-22,89,74,62,75,66,59,89,77,58,29.98,29.82,21,2,21,0.18
2013-7-23,78,70,61,65,59,55,88,70,51,30.07,29.85,17,6,17,0.00
2013-7-24,81,67,55,60,56,51,87,69,43,30.17,30.06,10,2,10,0.00
2013-7-25,83,70,55,65,60,52,88,71,53,30.18,30.09,14,3,14,0.02
2013-7-26,80,69,57,70,62,53,89,79,48,30.13,29.97,19,6,19,0.22
2013-7-27,65,58,51,55,50,46,88,76,55,30.08,30.02,18,6,18,0.22
2013-7-28,73,62,51,54,51,46,87,69,49,30.14,29.99,16,4,16,0.22
2013-7-29,81,66,48,60,55,44,87,68,46,30.24,30.13,22,1,22,0.22
2013-7-30,66,62,60,62,57,32,90,84,32,30.23,30.13,10,2,10,0.08
2013-7-31,83,70,63,68,63,59,91,80,61,30.15,30.06,8,1,8,0.02
2013-8-1,85,72,59,63,58,54,89,66,41,30.14,29.99,16,3,16,0.08
2013-8-2,87,72,65,70,64,60,86,75,51,30.07,29.95,17,3,17,0.08
2013-8-3,81,71,59,60,57,54,86,64,42,30.20,30.06,15,5,15,0.08
2013-8-4,80,70,55,59,56,50,84,62,40,30.30,18.75,7,0,7,0.00
2013-8-5,76,65,58,68,60,53,89,84,75,30.18,29.94,21,4,21,0.67
2013-8-6,84,73,65,74,68,-15,90,85,71,29.99,29.90,11,2,11,0.00
2013-8-7,86,74,63,73,68,58,89,81,54,30.07,29.87,22,2,22,0.00
2013-8-8,82,70,59,66,61,55,88,75,55,30.13,30.05,11,2,11,0.00
2013-8-9,85,73,60,70,64,56,88,74,57,30.12,30.07,10,1,10,0.00
2013-8-10,81,74,58,61,58,54,87,57,44,30.26,30.17,17,5,17,0.00
2013-8-11,85,74,62,69,64,57,98,71,56,30.22,30.10,13,2,13,436.59
2013-8-12,85,73,63,70,64,57,87,74,50,30.12,30.01,15,4,15,0.00
2013-8-13,74,64,54,58,53,47,87,68,43,30.25,30.07,18,6,18,436.59
2013-8-14,81,62,51,59,50,46,85,69,39,30.31,30.22,6,0,6,0.00
2013-8-15,81,69,55,59,55,48,85,63,41,30.26,19.25,7,0,7,0.00
2013-8-16,84,68,52,60,55,48,87,67,41,30.28,30.22,11,2,11,0.00
2013-8-17,84,68,55,63,57,51,88,68,42,30.32,30.23,14,2,14,0.00
2013-8-18,79,62,55,63,56,41,88,82,58,30.30,29.30,1,0,1,0.00
2013-8-19,86,76,59,68,64,54,88,68,51,30.20,19.25,14,3,14,0.00
2013-8-20,88,76,64,70,65,59,87,70,49,30.18,30.09,22,3,22,0.00
2013-8-21,89,78,67,72,68,63,86,72,55,30.14,30.05,17,4,17,0.00
2013-8-22,79,72,65,69,66,61,88,82,68,30.22,30.07,18,3,18,0.10
2013-8-23,85,71,59,70,61,56,90,74,48,30.26,30.18,13,2,13,0.00
2013-8-24,88,69,59,70,59,53,81,70,56,30.32,30.23,8,2,8,0.00
2013-8-25,91,85,32,74,70,32,100,61,47,30.31,19.33,17,7,17,0.10
2013-8-26,93,80,66,76,69,62,86,72,53,30.23,30.06,16,4,16,0.00
2013-8-27,96,83,71,75,71,67,86,69,49,30.08,29.94,16,5,16,0.00
2013-8-28,91,80,70,78,72,65,85,77,62,30.12,29.97,13,4,13,0.00
2013-8-29,90,77,68,76,69,64,89,78,61,30.17,30.05,11,2,11,0.00
2013-8-30,100,84,70,80,72,67,88,71,42,30.06,29.86,16,3,16,0.00
2013-8-31,86,75,68,72,68,64,88,79,61,29.94,29.87,18,5,18,0.00
2013-9-1,93,75,64,75,65,58,90,73,45,29.97,29.84,18,3,18,0.00
2013-9-2,77,66,53,61,56,50,88,72,48,30.11,29.96,18,6,18,0.00
2013-9-3,80,64,50,59,54,26,89,70,44,30.20,30.10,6,0,6,0.00
2013-9-4,90,71,51,67,59,48,89,68,42,30.23,30.13,8,0,8,0.00
2013-9-5,82,72,63,68,64,58,85,76,62,30.30,30.19,16,5,16,0.00
2013-9-6,90,73,56,66,59,51,81,63,41,30.28,30.07,14,3,14,0.00
2013-9-7,92,74,65,72,64,-17,84,72,50,30.08,29.96,12,2,12,0.00
2013-9-8,82,74,69,71,67,64,87,80,69,30.10,29.99,24,9,24,0.10
2013-9-9,100,82,67,76,69,63,89,68,39,30.02,29.88,16,3,16,0.10
2013-9-10,98,83,68,69,64,61,78,55,32,30.09,29.96,22,4,22,0.10
2013-9-11,89,77,67,69,65,62,85,66,51,30.16,30.07,16,3,16,0.00
2013-9-12,78,68,56,63,54,34,88,64,38,30.22,30.10,26,6,26,0.00
2013-9-13,71,58,47,48,43,40,82,59,35,30.31,30.20,15,5,15,0.00
2013-9-14,76,60,42,50,44,37,84,58,34,30.26,30.06,11,1,11,0.00
2013-9-15,62,57,52,58,51,45,89,83,63,30.28,30.03,22,3,22,0.76
2013-9-16,67,57,50,52,48,45,89,73,47,30.46,30.28,18,5,18,0.00
2013-9-17,70,58,46,57,50,43,89,77,59,30.41,29.18,11,2,11,0.00
2013-9-18,81,64,60,71,58,54,89,80,71,30.15,20.60,22,1,22,0.94
2013-9-19,92,77,66,72,67,62,89,74,47,29.98,29.79,21,6,21,0.22
2013-9-20,69,64,54,63,60,49,89,86,61,30.00,20.78,15,5,15,0.88
2013-9-21,70,58,47,52,48,44,89,71,50,30.05,29.97,18,4,18,0.02
2013-9-22,72,52,44,52,45,41,88,79,45,30.15,20.78,11,1,11,0.86
2013-9-23,75,60,46,54,48,42,88,68,44,30.16,30.05,15,5,15,0.00
2013-9-24,74,64,48,55,51,44,87,65,47,30.08,20.78,17,6,17,0.00
2013-9-25,77,62,-14,55,51,-18,88,69,43,30.06,29.98,12,5,12,0.00
2013-9-26,83,61,50,61,52,47,88,74,46,30.13,20.78,14,5,14,0.86
2013-9-27,85,68,54,61,52,49,81,59,36,30.19,30.08,15,4,15,0.00
2013-9-28,82,64,52,64,56,48,89,76,53,30.10,29.95,23,4,23,0.00
2013-9-29,75,59,44,59,47,41,91,68,36,30.18,30.07,7,0,7,0.00
2013-9-30,77,60,44,54,47,39,84,64,38,30.07,20.78,21,3,21,2.04
2013-10-1,84,68,55,64,58,51,88,72,49,30.06,29.94,17,4,17,0.00
2013-10-2,82,66,56,62,52,47,85,65,35,30.16,20.78,15,5,15,2.04
2013-10-3,80,68,63,70,63,59,89,85,66,30.02,20.78,17,2,17,2.04
2013-10-4,75,68,63,70,64,59,89,87,83,30.10,29.94,27,4,27,0.00
2013-10-5,74,66,47,68,60,41,89,82,67,29.97,29.86,20,4,20,0.00
2013-10-6,56,45,39,43,40,36,89,81,57,29.91,28.85,14,1,14,2.04
2013-10-7,74,56,39,52,45,36,90,68,36,30.16,29.88,15,3,15,0.00
2013-10-8,79,58,46,54,46,41,85,67,33,30.23,20.78,19,2,19,2.04
2013-10-9,77,56,47,53,45,42,85,69,32,30.28,20.78,12,1,12,2.04
2013-10-10,78,58,44,57,48,40,86,70,45,30.23,20.78,10,2,10,2.04
2013-10-11,78,65,53,60,54,49,87,69,45,30.10,29.94,28,4,28,0.00
2013-10-12,70,61,45,56,47,36,85,62,38,30.28,29.95,20,3,20,0.00
2013-10-13,66,53,38,44,36,32,82,55,35,30.49,30.28,11,2,11,0.00
2013-10-14,65,52,38,47,40,33,83,65,45,30.47,30.13,18,5,18,0.00
2013-10-15,66,56,49,60,48,41,88,76,57,30.13,20.78,17,5,17,2.04
2013-10-16,50,48,47,45,43,42,88,83,77,30.05,29.93,22,4,22,0.00
2013-10-17,61,49,40,48,40,34,89,73,41,30.03,29.90,14,2,14,0.00
2013-10-18,51,45,39,41,37,33,87,73,54,30.07,29.92,20,5,20,0.00
2013-10-19,55,45,35,39,36,-6,85,71,48,29.96,28.96,16,4,16,0.00
2013-10-20,58,45,33,46,38,30,88,78,60,29.93,29.79,16,3,16,0.00
2013-10-21,48,40,29,41,31,23,82,71,44,30.08,20.78,20,6,20,2.04
2013-10-22,37,32,25,34,28,1,89,86,78,30.08,29.99,10,1,10,0.00
2013-10-23,46,36,28,36,29,25,87,76,52,30.13,30.06,22,4,22,0.00
2013-10-24,43,34,26,31,24,19,84,66,50,30.41,30.13,20,4,20,0.00
2013-10-25,55,40,23,35,26,19,85,61,37,30.46,30.10,18,5,18,0.00
2013-10-26,55,44,32,35,29,24,76,57,39,30.18,29.96,22,6,22,0.35
2013-10-27,57,41,25,35,28,21,85,63,38,30.17,30.00,16,3,16,0.00
2013-10-28,54,42,32,41,34,26,82,73,60,30.42,30.10,22,8,22,0.00
2013-10-29,58,45,36,42,37,-27,86,72,52,30.41,21.04,16,7,16,2.04
2013-10-30,58,52,47,55,49,-1,90,87,77,30.17,29.79,21,4,21,0.18
2013-10-31,62,53,41,59,50,38,90,89,86,29.79,29.44,18,6,18,0.08
2013-11-1,48,43,38,43,39,12,89,86,79,29.86,29.56,15,4,15,0.00
2013-11-2,52,39,31,41,33,-13,89,79,53,30.23,29.86,14,4,14,0.00
2013-11-3,54,37,26,39,30,23,88,77,48,30.34,30.20,18,3,18,0.00
2013-11-4,56,48,42,44,40,35,79,72,60,30.23,30.10,19,6,19,0.00
2013-11-5,54,50,47,50,46,33,89,86,79,30.28,29.92,21,4,21,0.16
2013-11-6,56,43,28,53,37,22,90,80,59,30.31,29.82,19,7,19,0.16
2013-11-7,45,32,24,34,27,20,87,81,63,30.34,30.29,13,3,13,0.00
2013-11-8,50,38,24,36,29,21,87,71,47,30.37,29.89,25,4,25,0.00
2013-11-9,59,48,38,42,37,29,81,67,51,30.27,21.49,24,10,24,2.65
2013-11-10,52,40,26,34,30,23,86,69,48,30.45,30.25,17,4,17,0.00
2013-11-11,44,34,20,35,28,14,88,76,66,30.66,30.15,27,5,27,0.00
2013-11-12,33,21,14,21,14,10,83,75,58,30.83,21.49,15,4,15,2.98
2013-11-13,43,25,14,21,15,10,83,68,39,30.66,21.49,30,6,30,2.98
2013-11-14,52,40,30,31,26,14,68,57,39,30.18,29.97,21,7,21,0.00
2013-11-15,56,43,33,36,31,26,82,64,44,30.03,29.92,22,4,22,0.00
2013-11-16,59,50,37,54,46,32,88,85,81,29.92,29.54,29,8,29,0.02
2013-11-17,69,56,39,62,52,34,89,86,75,29.91,20.54,29,8,29,0.04
2013-11-18,44,36,24,34,28,20,85,73,52,30.35,29.91,30,8,30,0.02
2013-11-19,43,32,22,29,25,18,87,76,56,30.40,30.26,16,3,16,0.02
2013-11-20,39,35,30,34,30,26,89,83,71,30.28,30.10,52,5,52,0.06
2013-11-21,42,39,36,38,36,34,90,88,85,30.34,30.14,14,5,14,0.02
2013-11-22,38,33,18,35,27,15,89,81,63,30.58,21.58,26,9,26,2.98
2013-11-23,20,18,16,15,14,-3,85,81,39,30.71,21.58,22,5,22,0.12
2013-11-24,29,22,7,12,9,3,83,57,38,30.77,30.38,18,8,18,0.12
2013-11-25,34,28,19,26,21,11,87,77,66,30.38,30.14,19,7,19,0.12
2013-11-26,34,25,11,26,16,4,88,72,49,30.33,30.13,20,5,20,0.12
2013-11-27,30,18,8,14,8,2,77,67,46,30.39,30.25,16,4,16,0.12
2013-11-28,34,25,17,19,15,9,75,64,51,30.49,30.18,19,4,19,0.12
2013-11-29,37,28,14,22,19,-4,85,69,51,30.65,21.58,13,4,13,0.00
2013-11-30,50,35,25,34,27,19,84,72,52,30.39,30.10,18,4,18,0.00
2013-12-1,44,34,27,31,27,23,87,76,59,30.20,30.04,13,4,13,0.00
2013-12-2,40,35,30,33,30,27,88,83,73,30.04,29.74,15,7,15,0.00
2013-12-3,43,38,36,40,36,32,91,89,88,29.76,21.58,13,6,13,0.02
2013-12-4,50,42,26,47,39,23,91,91,51,29.85,29.55,21,3,21,0.00
2013-12-5,26,18,14,23,12,7,88,76,65,30.38,29.84,21,8,21,0.00
2013-12-6,20,12,7,8,4,1,79,71,55,30.65,30.36,14,5,14,0.00
2013-12-7,19,9,0,4,0,-5,82,68,49,30.78,30.63,11,3,11,0.00
2013-12-8,20,19,11,17,15,3,89,84,67,30.42,29.45,18,7,18,0.00
2013-12-9,19,6,-10,16,2,-15,89,80,66,30.31,30.03,10,3,10,0.00
2013-12-10,20,10,-8,13,4,-12,84,74,61,30.34,30.03,21,5,21,0.00
2013-12-11,17,10,-9,13,5,-15,86,78,54,30.64,20.60,17,2,17,3.12
2013-12-12,23,9,-6,12,2,-12,83,74,60,30.60,30.25,15,4,15,0.02
2013-12-13,27,19,8,22,14,5,87,80,71,30.25,30.10,18,7,18,0.02
2013-12-14,26,23,13,21,19,8,88,86,79,30.14,30.06,23,13,23,3.10
2013-12-15,13,10,6,8,4,0,83,76,68,30.20,30.09,18,5,18,0.00
2013-12-16,20,11,9,16,6,3,88,80,73,30.18,20.60,10,2,10,0.02
2013-12-17,36,24,13,27,18,8,88,79,57,30.23,21.59,24,7,24,3.10
2013-12-18,42,25,10,27,18,7,85,74,50,30.22,29.86,20,3,20,0.00
2013-12-19,35,30,25,29,26,21,90,85,77,29.97,21.59,20,5,20,0.02
2013-12-20,32,26,24,29,24,21,90,89,89,29.92,21.59,0,0,0,3.10
2013-12-21,27,25,24,25,22,21,90,90,88,29.94,29.82,0,0,0,3.10
2013-12-22,28,22,13,25,19,9,90,86,82,30.26,21.59,21,5,21,1.12
2013-12-23,13,-2,-10,9,-8,-14,86,75,65,30.55,22.45,11,3,11,4.26
2013-12-24,15,1,-16,11,-4,-21,85,77,65,30.61,30.32,9,1,9,1.16
2013-12-25,24,20,14,20,17,8,89,85,77,30.32,30.19,13,2,13,1.16
2013-12-26,32,23,10,26,18,6,88,82,72,30.29,30.18,13,2,13,1.16
2013-12-27,37,25,14,30,21,11,89,85,70,30.33,30.15,14,2,14,4.26
2013-12-28,46,37,28,34,30,13,88,76,52,30.15,29.85,19,5,19,4.26
2013-12-29,36,18,-5,29,12,-12,89,78,68,30.35,29.84,32,7,32,4.26
2013-12-30,12,-1,-13,0,-8,-18,82,73,52,30.39,30.25,5,0,5,4.26
2013-12-31,11,4,-8,5,-1,-13,83,81,74,30.40,30.26,15,2,16,4.26
2014-1-1,12,8,4,8,4,0,85,82,76,30.33,30.28,21,13,21,4.26
2014-1-2,15,7,-6,6,0,-11,79,74,65,30.50,30.29,19,8,19,4.26